Weather Roundup
Issued by NWS

Home | Current Version | Previous Version | Text Only | Print | Product List | Glossary On
Versions: 1 2 3 4 5 6 7 8 9 10 11 12 13 14 15 16 17 18 19 20 21 22 23 24 25 26 27 28 29 30 31 32 33 34 35 36 37 38 39 40 41 42 43 44 45 46 47 48 49 50
502
NZUS93 KARX 210159
HRRWXR

CURRENT HOURLY OBSERVATIONS ACROSS
MUCH OF THE UPPER MISSISSIPPI VALLEY
NATIONAL WEATHER SERVICE LA CROSSE WI
800 PM CST SAT JAN 20 2018


...SOUTHEAST MINNESOTA...


CITY           SKY/WX    TMP DP  RH WIND       PRES   REMARKS
ROCHESTER      FAIR      36  31  82 CALM      29.91S
ROCHESTER/MAYO FAIR      37  32  81 CALM      29.92S
WINONA         FAIR      30  28  93 CALM      29.92R
AUSTIN         FAIR      34  30  86 CALM      29.91S
ALBERT LEA     FAIR      34  30  86 CALM      29.91S
DODGE CENTER   FAIR      32  30  93 CALM      29.91S
PRESTON        FAIR      36  31  83 CALM      29.92S
OWATONNA       FAIR      32  30  93 CALM      29.92S
FARIBAULT      FAIR      30  28  93 CALM      29.93S
$$

...ELSEWHERE IN MINNESOTA...


CITY           SKY/WX    TMP DP  RH WIND       PRES   REMARKS
MINNEAPOLIS    MOCLDY    38  32  79 SW3       29.93S
INTNL FALLS    FAIR      27  23  85 W6        29.85R WCI  20
DULUTH         FAIR      31  25  78 W7        29.86R WCI  24
RED WING       FAIR      30  27  86 CALM      29.92S
REDWOOD FALLS  PTCLDY    38  31  76 CALM      29.92S
MANKATO        FAIR      33  30  88 CALM      29.93R
WORTHINGTON    CLOUDY    36  32  85 N6        29.91R WCI  31
FAIRMONT       CLOUDY    35  32  88 NE3       29.91S
$$

...SOUTHWEST WISCONSIN...


CITY           SKY/WX    TMP DP  RH WIND       PRES   REMARKS
LA CROSSE      FAIR      30  28  92 CALM      29.93S
PRAIRIE DU CHI FAIR      33  29  85 CALM      29.93R
BOSCOBEL       FAIR      31  27  85 CALM      29.94R
LONE ROCK      FAIR      30  29  96 E3        29.94R FOG
PLATTEVILLE    FAIR      37  33  84 SE5       29.93S WCI  34
FORT MC COY    FAIR      29  28  94 CALM      29.94R
CAMP DOUGLAS   FAIR      28  28  98 CALM      29.92S
MAUSTON-NEW LI FAIR      30  28  93 CALM      29.92S
VIROQUA        FAIR      38  32  80 E5        29.91S WCI  35
WIS DELLS      FAIR      33  29  86 CALM      29.92S
$$

...ELSEWHERE IN WISCONSIN...


CITY           SKY/WX    TMP DP  RH WIND       PRES   REMARKS
MILWAUKEE      FAIR      37  31  78 SW3       29.96S
MADISON        FAIR      33  29  85 CALM      29.95F
GREEN BAY      FAIR      33  29  85 CALM      29.94F
EAU CLAIRE     NOT AVBL
BLACK RVR FLS  FAIR      28  28 100 CALM      29.93R
MEDFORD        FAIR      29  27  93 CALM      29.90S
WAUSAU         FAIR      32  29  88 CALM      29.89F
WIS RAPIDS     FAIR      30  26  85 CALM      29.93F
MARSHFIELD     FAIR      32  29  88 CALM      29.90F
RICE LAKE      FAIR      31  30  95 CALM      29.92R
$$

...NORTHEAST IOWA...


CITY           SKY/WX    TMP DP  RH WIND       PRES   REMARKS
WATERLOO       FAIR      30  27  88 S5        29.92R WCI  25
DUBUQUE        FAIR      31  29  92 S7        29.93R FOG     WCI  24
DECORAH        FAIR      37  34  87 CALM      29.91R
MASON CITY     CLOUDY    32  30  92 NE7       29.91F WCI  26
CHARLES CITY   FAIR      36  36 100 E7        29.91F WCI  30
OELWEIN        FAIR      34  34 100 S9        29.92S WCI  26
$$

...ELSEWHERE IN IOWA...


CITY           SKY/WX    TMP DP  RH WIND       PRES   REMARKS
DES MOINES     CLOUDY    41  37  86 E5        29.90S
IOWA CITY      CLOUDY    38  34  85 CALM      29.96R
FORT DODGE     CLOUDY    33  32  96 E6        29.88F WCI  28
MARSHALLTOWN   CLOUDY    32  31  96 SE6       29.90S FOG     WCI  26
CEDAR RAPIDS   MOCLDY    34  32  92 S3        29.93R FOG
$$

...NORTHERN ILLINOIS...


CITY           SKY/WX    TMP DP  RH WIND       PRES   REMARKS
CHICAGO-OHARE  CLOUDY    41  36  82 SW8       29.99R
CHICAGO-MIDWAY CLOUDY    42  37  82 SW8       29.99S
MOLINE         CLOUDY    42  37  82 CALM      29.95S
ROCKFORD       CLOUDY    37  34  89 S6        29.98S WCI  32
PEORIA         CLOUDY    43  39  86 S3        29.99R
$$

NOTE: "FAIR" INDICATES FEW OR NO CLOUDS BELOW 12,000 FEET WITH NO
SIGNIFICANT WEATHER AND/OR OBSTRUCTIONS TO VISIBILITY. WIND
SPEEDS ARE IN MILES-PER-HOUR.




USA.gov is the U.S. government's official web portal to all federal, state and local government web resources and services.